Fort Covington, New York, United States (12937)
Lat: 44.99N, Lon: 74.5W
Wx Zone: NYZ027
Local Info
Past Weather Observations for Wednesday, April 16, 2014

NOTE: This archive is for the closest National Weather Service station to Fort Covington. Information may differ from the station used for current weather conditions.

Time Weather Temperature Dewpoint Humidity Pressure Winds Precip Visibility
23:53
Clear
25°F / -4°C 19°F / -7°C 80% 30.66 in
(1038 mb)
Calm - 10SM
22:53
Clear
25°F / -4°C 18°F / -8°C 74% 30.63 in
(1037 mb)
S 3.5 mph
(S 6 kph)
- 10SM
21:53
Clear
27°F / -3°C 18°F / -8°C 69% 30.63 in
(1037 mb)
Calm - 10SM
20:53
Clear
27°F / -3°C 18°F / -8°C 69% 30.6 in
(1036 mb)
S 3.5 mph
(S 6 kph)
- 10SM
19:53
Clear
28°F / -2°C 16°F / -9°C 59% 30.57 in
(1035 mb)
SSE 4.6 mph
(SSE 7 kph)
- 10SM
18:53
Clear
30°F / -1°C 14°F / -10°C 51% 30.57 in
(1035 mb)
SSE 5.8 mph
(SSE 9 kph)
- 10SM
17:53
Clear
34°F / 1°C 12°F / -11°C 41% 30.54 in
(1034 mb)
SSW 9.2 mph
(SSW 15 kph)
- 10SM
16:53
Clear
34°F / 1°C 12°F / -11°C 41% 30.54 in
(1034 mb)
WNW 5.8 mph
(WNW 9 kph)
- 10SM
15:53
Partly Cloudy
34°F / 1°C 14°F / -10°C 44% 30.51 in
(1033 mb)
SSW 8.1 mph
(SSW 13 kph)
- 10SM
14:53
Clear
32°F / 0°C 12°F / -11°C 44% 30.51 in
(1033 mb)
WNW 13.8 mph
(WNW 22 kph)
- 10SM
13:53
Partly Cloudy
30°F / -1°C 10°F / -12°C 43% 30.51 in
(1033 mb)
W 11.5 mph
(W 19 kph)
- 10SM
12:53
Partly Cloudy
30°F / -1°C 12°F / -11°C 47% 30.51 in
(1033 mb)
W 11.5 mph
(W 19 kph)
- 10SM
11:53
Partly Cloudy
28°F / -2°C 10°F / -12°C 47% 30.51 in
(1033 mb)
W 10.4 mph
(W 17 kph)
- 10SM
10:53
Partly Cloudy
25°F / -4°C 10°F / -12°C 54% 30.48 in
(1032 mb)
NW 11.5 mph
(NW 19 kph)
- 10SM
09:53
Partly Cloudy
25°F / -4°C 10°F / -12°C 54% 30.45 in
(1031 mb)
W 11.5 mph
(W 19 kph)
- 10SM
08:53
Partly Cloudy
23°F / -5°C 10°F / -12°C 58% 30.45 in
(1031 mb)
WNW 11.5 mph
(WNW 19 kph)
- 10SM
07:53
Mostly Cloudy
21°F / -6°C 10°F / -12°C 63% 30.39 in
(1029 mb)
W 17.3 mph
(W 28 kph)
- 10SM
07:29
Mostly Cloudy
21°F / -6°C 10°F / -12°C 63% 30.39 in
(1029 mb)
WNW 12.7 mph
(WNW 20 kph)
- 10SM
06:53
Overcast
19°F / -7°C 10°F / -12°C 68% 30.36 in
(1028 mb)
W 11.5 mph
(W 19 kph)
- 10SM
06:13
Mostly Cloudy
19°F / -7°C 10°F / -12°C 68% 30.33 in
(1027 mb)
NW 12.7 mph
(NW 20 kph)
- 10SM
05:53
Partly Cloudy
19°F / -7°C 10°F / -12°C 68% 30.3 in
(1026 mb)
NW 12.7 mph
(NW 20 kph)
- 10SM
05:23
Partly Cloudy
19°F / -7°C 10°F / -12°C 68% 30.27 in
(1025 mb)
NW 11.5 mph
(NW 19 kph)
- 10SM
04:53
Mostly Cloudy
19°F / -7°C 10°F / -12°C 68% 30.24 in
(1024 mb)
WNW 12.7 mph
(WNW 20 kph)
0.00 in
(0.00 mm)
9SM
03:53
Mostly Cloudy
19°F / -7°C 12°F / -11°C 73% 30.15 in
(1021 mb)
NW 16.1 mph
(NW 26 kph)
- 10SM
03:45
Mostly Cloudy
21°F / -6°C 12°F / -11°C 68% 30.15 in
(1021 mb)
NW 11.5 mph
(NW 19 kph)
- 10SM
02:53
Clear
21°F / -6°C 12°F / -11°C 68% 30.15 in
(1021 mb)
W 13.8 mph
(W 22 kph)
- 10SM
01:53
Partly Cloudy
21°F / -6°C 12°F / -11°C 68% 30.12 in
(1020 mb)
NW 13.8 mph
(NW 22 kph)
- 10SM
00:53
Clear
23°F / -5°C 16°F / -9°C 74% 30.09 in
(1019 mb)
WNW 13.8 mph
(WNW 22 kph)
0.00 in
(0.00 mm)
10SM
00:25
Partly Cloudy
25°F / -4°C 16°F / -9°C 69% 30.06 in
(1018 mb)
WNW 16.1 mph
(WNW 26 kph)
0.00 in
(0.00 mm)
10SM
00:11
Overcast
25°F / -4°C 16°F / -9°C 69% 30.06 in
(1018 mb)
WNW 16.1 mph
(WNW 26 kph)
0.00 in
(0.00 mm)
9SM
Time Weather Temperature Dewpoint Humidity Pressure Winds Precip Visibility


Weather for websites

WeatherForYou.com, LLC is not responsible for any damages or problems caused by this service. Current weather conditions are obtained from the closest station including government and personal stations which may have varying degrees of accuracy. Weather forecasts are derived from the NOAA NDFD. Like all things, this site belongs to Jesus Christ... He just trusts me to maintain it. If you have any questions or comments email webmaster@weatherforyou.com

Copyright © 2014, WeatherForYou.com LLC. All rights reserved.